Time,TemperatureF,DewpointF,PressureIn,WindDirection,WindDirectionDegrees,WindSpeedMPH,WindSpeedGustMPH,Humidity,HourlyPrecipIn,Conditions,Clouds,dailyrainin,SoftwareType,DateUTC
2013-03-10 00:00:00,53.9,51.0,29.22,SSE,158,0.0,0.0,90,0.00,,,0.59,WUHU216HW,2013-03-10 06:00:00,
2013-03-10 00:05:00,53.7,50.5,29.22,SSE,158,0.0,0.0,89,0.00,,,0.00,WUHU216HW,2013-03-10 06:05:00,
2013-03-10 00:10:00,53.4,50.2,29.22,SSE,158,0.0,0.0,89,0.00,,,0.00,WUHU216HW,2013-03-10 06:10:00,
2013-03-10 00:15:00,53.4,50.2,29.21,SE,135,0.0,0.0,89,0.00,,,0.00,WUHU216HW,2013-03-10 06:15:00,
2013-03-10 00:20:00,53.4,50.2,29.20,SE,135,0.0,0.8,89,0.00,,,0.00,WUHU216HW,2013-03-10 06:20:00,
2013-03-10 00:25:00,53.2,50.0,29.21,SSE,158,0.0,0.8,89,0.00,,,0.00,WUHU216HW,2013-03-10 06:25:00,
2013-03-10 00:30:00,53.2,50.3,29.20,SE,135,0.0,0.4,90,0.00,,,0.00,WUHU216HW,2013-03-10 06:30:00,
2013-03-10 00:35:00,53.2,50.3,29.20,SE,135,0.0,0.0,90,0.00,,,0.00,WUHU216HW,2013-03-10 06:35:00,
2013-03-10 00:40:00,53.0,50.1,29.20,ESE,113,0.0,0.0,90,0.00,,,0.00,WUHU216HW,2013-03-10 06:40:00,
2013-03-10 00:45:00,52.8,50.0,29.19,SSE,158,0.0,0.0,90,0.00,,,0.00,WUHU216HW,2013-03-10 06:45:00,
2013-03-10 00:50:00,52.8,50.0,29.19,SE,135,0.0,0.0,90,0.00,,,0.00,WUHU216HW,2013-03-10 06:50:00,
2013-03-10 00:55:00,52.7,49.8,29.21,SSE,158,0.0,0.0,90,0.00,,,0.00,WUHU216HW,2013-03-10 06:55:00,
2013-03-10 01:00:00,52.7,49.8,29.21,SE,135,0.0,0.0,90,0.00,,,0.00,WUHU216HW,2013-03-10 07:00:00,
2013-03-10 01:05:00,52.7,49.8,29.21,SE,135,1.3,1.3,90,0.00,,,0.00,WUHU216HW,2013-03-10 07:05:00,
2013-03-10 01:10:00,52.5,49.6,29.21,SE,135,0.0,1.3,90,0.00,,,0.00,WUHU216HW,2013-03-10 07:10:00,
2013-03-10 01:15:00,52.5,49.6,29.21,SSE,158,0.0,2.2,90,0.00,,,0.00,WUHU216HW,2013-03-10 07:15:00,
2013-03-10 01:20:00,52.5,49.6,29.20,SSE,158,0.0,2.2,90,0.00,,,0.00,WUHU216HW,2013-03-10 07:20:00,
2013-03-10 01:25:00,52.5,49.6,29.19,SSE,158,0.0,0.8,90,0.00,,,0.00,WUHU216HW,2013-03-10 07:25:00,
2013-03-10 01:30:00,52.5,49.6,29.20,SSE,158,0.0,0.8,90,0.00,,,0.00,WUHU216HW,2013-03-10 07:30:00,
2013-03-10 01:35:00,52.5,49.6,29.21,ESE,113,3.1,3.1,90,0.00,,,0.00,WUHU216HW,2013-03-10 07:35:00,
2013-03-10 01:40:00,52.5,49.6,29.22,SSE,158,0.0,3.1,90,0.00,,,0.00,WUHU216HW,2013-03-10 07:40:00,
2013-03-10 01:45:00,52.3,49.4,29.22,SE,135,0.6,3.1,90,0.00,,,0.00,WUHU216HW,2013-03-10 07:45:00,
2013-03-10 05:39:00,51.8,49.2,29.22,SSE,158,0.0,0.0,91,0.00,,,0.00,WUHU216HW,2013-03-10 10:39:00,
2013-03-10 05:44:00,51.6,49.0,29.22,South,180,0.0,0.0,91,0.00,,,0.00,WUHU216HW,2013-03-10 10:44:00,
2013-03-10 05:49:00,51.6,49.0,29.22,South,180,0.0,0.0,91,0.00,,,0.00,WUHU216HW,2013-03-10 10:49:00,
2013-03-10 05:54:00,51.4,48.8,29.22,South,180,0.0,0.0,91,0.00,,,0.00,WUHU216HW,2013-03-10 10:54:00,
2013-03-10 05:59:00,51.4,48.8,29.22,SSE,158,0.0,0.0,91,0.00,,,0.00,WUHU216HW,2013-03-10 10:59:00,
2013-03-10 06:04:00,51.4,48.8,29.23,SSE,158,0.0,0.0,91,0.00,,,0.00,WUHU216HW,2013-03-10 11:04:00,
2013-03-10 06:09:00,51.2,48.6,29.22,South,180,0.0,0.0,91,0.00,,,0.00,WUHU216HW,2013-03-10 11:09:00,
2013-03-10 06:14:00,51.2,48.6,29.22,South,180,0.0,0.0,91,0.00,,,0.00,WUHU216HW,2013-03-10 11:14:00,
2013-03-10 06:19:00,51.2,48.6,29.22,SSE,158,0.0,0.0,91,0.00,,,0.00,WUHU216HW,2013-03-10 11:19:00,
2013-03-10 06:24:00,51.2,48.6,29.23,SSE,158,0.0,0.0,91,0.00,,,0.00,WUHU216HW,2013-03-10 11:24:00,
2013-03-10 06:29:00,51.0,48.4,29.21,SSE,158,0.0,0.0,91,0.00,,,0.00,WUHU216HW,2013-03-10 11:29:00,
2013-03-10 06:34:00,51.0,48.4,29.20,SSE,158,0.0,1.3,91,0.00,,,0.00,WUHU216HW,2013-03-10 11:34:00,
2013-03-10 06:39:00,51.0,48.4,29.20,SSE,158,0.0,1.3,91,0.00,,,0.00,WUHU216HW,2013-03-10 11:39:00,
2013-03-10 06:44:00,51.0,48.4,29.20,South,180,0.0,0.0,91,0.00,,,0.00,WUHU216HW,2013-03-10 11:44:00,
2013-03-10 06:49:00,51.0,48.4,29.21,SE,135,0.0,0.0,91,0.00,,,0.00,WUHU216HW,2013-03-10 11:49:00,
2013-03-10 06:54:00,51.0,48.4,29.23,SSW,203,1.7,1.7,91,0.00,,,0.00,WUHU216HW,2013-03-10 11:54:00,
2013-03-10 06:59:00,51.0,48.4,29.24,South,180,0.0,1.7,91,0.00,,,0.00,WUHU216HW,2013-03-10 11:59:00,
2013-03-10 07:04:00,51.0,48.4,29.25,South,180,0.6,0.6,91,0.00,,,0.00,WUHU216HW,2013-03-10 12:04:00,
2013-03-10 07:09:00,51.0,48.4,29.25,South,180,0.0,2.9,91,0.00,,,0.00,WUHU216HW,2013-03-10 12:09:00,
2013-03-10 07:14:00,51.0,48.4,29.25,South,180,0.0,2.9,91,0.00,,,0.00,WUHU216HW,2013-03-10 12:14:00,
2013-03-10 07:19:00,51.0,48.4,29.25,SSE,158,0.0,0.0,91,0.00,,,0.00,WUHU216HW,2013-03-10 12:19:00,
2013-03-10 07:24:00,51.0,48.4,29.24,South,180,0.0,0.0,91,0.00,,,0.00,WUHU216HW,2013-03-10 12:24:00,
2013-03-10 07:29:00,50.9,48.3,29.24,SE,135,0.0,0.0,91,0.00,,,0.00,WUHU216HW,2013-03-10 12:29:00,
2013-03-10 07:34:00,50.9,48.3,29.25,SE,135,2.2,3.3,91,0.00,,,0.00,WUHU216HW,2013-03-10 12:34:00,
2013-03-10 07:39:00,50.9,48.3,29.23,SE,135,1.1,3.3,91,0.00,,,0.00,WUHU216HW,2013-03-10 12:39:00,
2013-03-10 07:44:00,50.7,48.1,29.23,ESE,113,0.0,1.1,91,0.00,,,0.00,WUHU216HW,2013-03-10 12:44:00,
2013-03-10 07:49:00,50.7,48.1,29.23,SSE,158,0.8,0.8,91,0.00,,,0.00,WUHU216HW,2013-03-10 12:49:00,
2013-03-10 07:54:00,50.7,48.1,29.23,SSE,158,3.3,3.3,91,0.00,,,0.00,WUHU216HW,2013-03-10 12:54:00,
2013-03-10 07:59:00,50.7,48.1,29.22,SE,135,0.0,4.4,91,0.00,,,0.00,WUHU216HW,2013-03-10 12:59:00,
2013-03-10 08:04:00,50.7,48.1,29.22,SE,135,0.0,4.4,91,0.00,,,0.00,WUHU216HW,2013-03-10 13:04:00,
2013-03-10 08:09:00,50.7,48.1,29.23,SE,135,0.0,1.3,91,0.00,,,0.00,WUHU216HW,2013-03-10 13:09:00,
2013-03-10 08:14:00,50.7,48.1,29.24,SE,135,0.0,1.3,91,0.00,,,0.00,WUHU216HW,2013-03-10 13:14:00,
2013-03-10 08:19:00,50.7,48.1,29.24,SSE,158,0.0,0.0,91,0.00,,,0.00,WUHU216HW,2013-03-10 13:19:00,
2013-03-10 08:24:00,50.7,48.1,29.24,SSE,158,0.0,0.0,91,0.00,,,0.00,WUHU216HW,2013-03-10 13:24:00,
2013-03-10 08:29:00,50.7,48.1,29.23,SSE,158,0.0,0.0,91,0.00,,,0.00,WUHU216HW,2013-03-10 13:29:00,
2013-03-10 08:34:00,50.7,48.1,29.23,SSE,158,0.0,0.0,91,0.00,,,0.00,WUHU216HW,2013-03-10 13:34:00,
2013-03-10 08:39:00,50.7,48.1,29.21,SSE,158,0.0,0.0,91,0.00,,,0.00,WUHU216HW,2013-03-10 13:39:00,
2013-03-10 08:44:00,50.7,48.1,29.22,SSE,158,0.0,0.0,91,0.00,,,0.00,WUHU216HW,2013-03-10 13:44:00,
2013-03-10 08:49:00,50.7,48.1,29.22,SSE,158,0.0,0.0,91,0.00,,,0.00,WUHU216HW,2013-03-10 13:49:00,
2013-03-10 08:54:00,50.5,47.9,29.23,SSE,158,0.0,0.0,91,0.00,,,0.00,WUHU216HW,2013-03-10 13:54:00,
2013-03-10 08:59:00,50.7,48.1,29.24,SSW,203,0.0,0.0,91,0.00,,,0.00,WUHU216HW,2013-03-10 13:59:00,
2013-03-10 09:04:00,50.5,47.6,29.24,NW,315,8.2,8.2,90,0.00,,,0.00,WUHU216HW,2013-03-10 14:04:00,
2013-03-10 09:09:00,49.2,46.4,29.24,NW,315,4.6,8.2,90,0.00,,,0.00,WUHU216HW,2013-03-10 14:09:00,
2013-03-10 09:14:00,47.3,43.6,29.25,WSW,248,2.4,8.2,87,0.00,,,0.00,WUHU216HW,2013-03-10 14:14:00,
2013-03-10 09:19:00,46.2,42.6,29.27,WNW,293,0.6,5.3,87,0.00,,,0.00,WUHU216HW,2013-03-10 14:19:00,
2013-03-10 09:24:00,45.3,41.7,29.27,WNW,293,0.0,5.3,87,0.00,,,0.00,WUHU216HW,2013-03-10 14:24:00,
2013-03-10 09:29:00,44.2,40.6,29.27,WSW,248,2.9,2.9,87,0.00,,,0.00,WUHU216HW,2013-03-10 14:29:00,
2013-03-10 09:34:00,43.5,39.9,29.27,WNW,293,4.9,4.9,87,0.00,,,0.00,WUHU216HW,2013-03-10 14:34:00,
2013-03-10 09:39:00,42.9,39.6,29.26,WNW,293,7.6,7.6,88,0.00,,,0.00,WUHU216HW,2013-03-10 14:39:00,
2013-03-10 09:44:00,42.0,39.0,29.25,West,270,7.1,7.6,89,0.00,,,0.00,WUHU216HW,2013-03-10 14:44:00,
2013-03-10 09:49:00,41.7,38.7,29.24,WNW,293,3.5,7.1,89,0.00,,,0.00,WUHU216HW,2013-03-10 14:49:00,
2013-03-10 09:54:00,41.3,38.3,29.25,NW,315,8.7,8.7,89,0.00,,,0.00,WUHU216HW,2013-03-10 14:54:00,
2013-03-10 09:59:00,40.8,38.1,29.25,NNW,338,5.5,8.9,90,0.00,,,0.00,WUHU216HW,2013-03-10 14:59:00,
2013-03-10 10:04:00,40.8,38.1,29.24,NNW,338,5.3,8.9,90,0.00,,,0.00,WUHU216HW,2013-03-10 15:04:00,
2013-03-10 10:09:00,40.6,37.9,29.25,NW,315,3.3,6.0,90,0.00,,,0.00,WUHU216HW,2013-03-10 15:09:00,
2013-03-10 10:14:00,40.4,37.7,29.24,NNW,338,4.2,8.5,90,0.00,,,0.00,WUHU216HW,2013-03-10 15:14:00,
2013-03-10 10:19:00,40.1,37.6,29.25,NNW,338,9.8,12.0,91,0.00,,,0.00,WUHU216HW,2013-03-10 15:19:00,
2013-03-10 10:24:00,39.9,37.4,29.26,NW,315,7.3,12.0,91,0.00,,,0.00,WUHU216HW,2013-03-10 15:24:00,
2013-03-10 10:29:00,39.9,37.4,29.26,NW,315,7.8,9.8,91,0.00,,,0.00,WUHU216HW,2013-03-10 15:29:00,
2013-03-10 10:34:00,39.9,37.4,29.26,WNW,293,8.5,8.5,91,0.00,,,0.00,WUHU216HW,2013-03-10 15:34:00,
2013-03-10 10:39:00,39.9,37.4,29.26,WNW,293,2.0,8.5,91,0.00,,,0.00,WUHU216HW,2013-03-10 15:39:00,
2013-03-10 10:44:00,39.9,37.4,29.26,NW,315,0.6,8.7,91,0.00,,,0.00,WUHU216HW,2013-03-10 15:44:00,
2013-03-10 10:49:00,39.9,37.7,29.26,NNW,338,0.0,8.7,92,0.00,,,0.00,WUHU216HW,2013-03-10 15:49:00,
2013-03-10 10:54:00,40.1,37.9,29.26,WNW,293,9.8,9.8,92,0.00,,,0.00,WUHU216HW,2013-03-10 15:54:00,
2013-03-10 10:59:00,39.9,37.7,29.26,WNW,293,6.7,9.8,92,0.00,,,0.00,WUHU216HW,2013-03-10 15:59:00,
2013-03-10 11:04:00,39.7,37.5,29.26,West,270,0.0,9.8,92,0.00,,,0.00,WUHU216HW,2013-03-10 16:04:00,
2013-03-10 11:09:00,39.5,37.4,29.26,NW,315,6.2,12.3,92,0.00,,,0.00,WUHU216HW,2013-03-10 16:09:00,
2013-03-10 11:14:00,39.3,37.2,29.26,WNW,293,5.1,12.3,92,0.00,,,0.00,WUHU216HW,2013-03-10 16:14:00,
2013-03-10 11:19:00,39.3,37.2,29.27,NW,315,1.5,8.2,92,0.00,,,0.00,WUHU216HW,2013-03-10 16:19:00,
2013-03-10 11:24:00,39.3,37.2,29.27,NNW,338,1.5,8.2,92,0.00,,,0.00,WUHU216HW,2013-03-10 16:24:00,
2013-03-10 11:29:00,39.3,37.2,29.27,NNW,338,4.6,8.2,92,0.00,,,0.00,WUHU216HW,2013-03-10 16:29:00,
2013-03-10 11:34:00,39.3,37.2,29.27,NW,315,1.7,8.2,92,0.00,,,0.00,WUHU216HW,2013-03-10 16:34:00,
2013-03-10 11:39:00,39.3,37.2,29.28,WNW,293,2.0,4.2,92,0.00,,,0.00,WUHU216HW,2013-03-10 16:39:00,
2013-03-10 11:44:00,39.3,37.2,29.28,West,270,0.0,5.1,92,0.00,,,0.00,WUHU216HW,2013-03-10 16:44:00,
2013-03-10 11:49:00,39.3,37.2,29.28,WNW,293,8.9,8.9,92,0.00,,,0.00,WUHU216HW,2013-03-10 16:49:00,
2013-03-10 11:55:00,39.0,36.8,29.28,WNW,293,2.9,8.9,92,0.00,,,0.00,WUHU216HW,2013-03-10 16:55:00,
2013-03-10 12:00:00,39.0,36.8,29.28,WNW,293,4.4,8.9,92,0.00,,,0.00,WUHU216HW,2013-03-10 17:00:00,
2013-03-10 12:05:00,39.2,37.0,29.28,NNW,338,10.7,10.9,92,0.00,,,0.00,WUHU216HW,2013-03-10 17:05:00,
2013-03-10 12:10:00,39.0,36.8,29.28,NNW,338,11.6,11.6,92,0.00,,,0.00,WUHU216HW,2013-03-10 17:10:00,
2013-03-10 12:15:00,39.0,36.8,29.28,WNW,293,6.7,11.6,92,0.00,,,0.00,WUHU216HW,2013-03-10 17:15:00,
2013-03-10 12:20:00,39.0,36.8,29.28,NW,315,10.5,11.6,92,0.00,,,0.00,WUHU216HW,2013-03-10 17:20:00,
2013-03-10 12:25:00,39.0,36.8,29.28,WNW,293,2.4,10.5,92,0.00,,,0.00,WUHU216HW,2013-03-10 17:25:00,
2013-03-10 12:30:00,39.0,36.8,29.27,NW,315,2.6,13.6,92,0.00,,,0.00,WUHU216HW,2013-03-10 17:30:00,
2013-03-10 12:35:00,38.8,36.6,29.27,NW,315,12.0,13.6,92,0.00,,,0.00,WUHU216HW,2013-03-10 17:35:00,
2013-03-10 12:40:00,38.8,36.6,29.27,NNW,338,4.2,12.0,92,0.00,,,0.00,WUHU216HW,2013-03-10 17:40:00,
2013-03-10 12:45:00,38.8,36.6,29.27,NNW,338,7.6,12.0,92,0.00,,,0.00,WUHU216HW,2013-03-10 17:45:00,
2013-03-10 12:50:00,38.8,36.6,29.27,NW,315,7.3,7.6,92,0.00,,,0.00,WUHU216HW,2013-03-10 17:50:00,
2013-03-10 12:55:00,38.4,36.3,29.27,NW,315,15.4,15.4,92,0.00,,,0.00,WUHU216HW,2013-03-10 17:55:00,
2013-03-10 13:00:00,38.4,36.3,29.27,WNW,293,5.1,15.4,92,0.00,,,0.00,WUHU216HW,2013-03-10 18:00:00,
2013-03-10 13:05:00,38.3,36.1,29.28,WSW,248,0.0,15.4,92,0.00,,,0.00,WUHU216HW,2013-03-10 18:05:00,
2013-03-10 13:10:00,37.9,35.7,29.28,WNW,293,6.4,13.8,92,0.00,,,0.00,WUHU216HW,2013-03-10 18:10:00,
2013-03-10 13:15:00,37.7,35.6,29.28,NW,315,5.1,13.8,92,0.00,,,0.00,WUHU216HW,2013-03-10 18:15:00,
2013-03-10 13:20:00,37.5,35.1,29.28,WNW,293,6.0,6.4,91,0.00,,,0.00,WUHU216HW,2013-03-10 18:20:00,
2013-03-10 13:25:00,37.5,35.1,29.28,WNW,293,7.1,7.3,91,0.00,,,0.00,WUHU216HW,2013-03-10 18:25:00,
2013-03-10 13:30:00,37.5,35.1,29.28,NNW,338,8.7,12.3,91,0.00,,,0.00,WUHU216HW,2013-03-10 18:30:00,
2013-03-10 13:35:00,37.5,35.1,29.28,WNW,293,13.8,13.8,91,0.00,,,0.00,WUHU216HW,2013-03-10 18:35:00,
2013-03-10 13:40:00,37.5,35.1,29.28,NW,315,4.4,13.8,91,0.00,,,0.00,WUHU216HW,2013-03-10 18:40:00,
2013-03-10 13:45:00,37.7,35.3,29.28,NW,315,13.4,13.8,91,0.00,,,0.00,WUHU216HW,2013-03-10 18:45:00,
2013-03-10 13:50:00,37.5,35.1,29.28,West,270,2.9,13.4,91,0.00,,,0.00,WUHU216HW,2013-03-10 18:50:00,
2013-03-10 13:55:00,37.2,34.7,29.28,NW,315,10.2,12.3,91,0.00,,,0.00,WUHU216HW,2013-03-10 18:55:00,
2013-03-10 14:00:00,37.4,34.9,29.29,WNW,293,4.9,10.2,91,0.00,,,0.00,WUHU216HW,2013-03-10 19:00:00,
2013-03-10 14:05:00,37.2,34.7,29.29,WNW,293,11.4,15.8,91,0.00,,,0.00,WUHU216HW,2013-03-10 19:05:00,
2013-03-10 14:10:00,37.2,34.5,29.29,NW,315,6.7,15.8,90,0.00,,,0.00,WUHU216HW,2013-03-10 19:10:00,
2013-03-10 14:15:00,37.2,34.5,29.29,WNW,293,8.0,11.4,90,0.00,,,0.00,WUHU216HW,2013-03-10 19:15:00,
2013-03-10 14:20:00,37.0,34.3,29.29,West,270,5.1,8.0,90,0.00,,,0.00,WUHU216HW,2013-03-10 19:20:00,
2013-03-10 14:25:00,37.0,34.3,29.29,NW,315,15.2,15.2,90,0.00,,,0.00,WUHU216HW,2013-03-10 19:25:00,
2013-03-10 14:30:00,36.8,34.1,29.29,West,270,0.0,15.2,90,0.00,,,0.00,WUHU216HW,2013-03-10 19:30:00,
2013-03-10 14:35:00,36.6,33.9,29.29,West,270,6.9,15.2,90,0.00,,,0.00,WUHU216HW,2013-03-10 19:35:00,
2013-03-10 14:40:00,36.5,33.8,29.29,WNW,293,9.6,13.6,90,0.00,,,0.00,WUHU216HW,2013-03-10 19:40:00,
2013-03-10 14:45:00,36.3,33.6,29.30,WNW,293,3.5,9.6,90,0.00,,,0.00,WUHU216HW,2013-03-10 19:45:00,
2013-03-10 14:50:00,36.3,33.6,29.30,NNW,338,8.2,9.6,90,0.00,,,0.00,WUHU216HW,2013-03-10 19:50:00,
2013-03-10 14:55:00,36.3,33.6,29.30,North,0,10.5,10.5,90,0.00,,,0.00,WUHU216HW,2013-03-10 19:55:00,
2013-03-10 15:00:00,36.3,33.6,29.29,NW,315,8.2,10.5,90,0.00,,,0.00,WUHU216HW,2013-03-10 20:00:00,
2013-03-10 15:05:00,35.9,33.2,29.30,NNW,338,11.8,11.8,90,0.00,,,0.00,WUHU216HW,2013-03-10 20:05:00,
2013-03-10 15:10:00,35.7,33.0,29.30,West,270,7.1,11.8,90,0.00,,,0.00,WUHU216HW,2013-03-10 20:10:00,
2013-03-10 15:15:00,35.4,32.7,29.30,NW,315,13.4,13.4,90,0.00,,,0.00,WUHU216HW,2013-03-10 20:15:00,
2013-03-10 15:20:00,34.8,31.8,29.31,NW,315,1.1,13.4,89,0.00,,,0.00,WUHU216HW,2013-03-10 20:20:00,
2013-03-10 15:25:00,34.8,31.8,29.31,West,270,3.3,10.9,89,0.00,,,0.00,WUHU216HW,2013-03-10 20:25:00,
2013-03-10 15:30:00,34.8,32.1,29.31,NNW,338,6.0,7.8,90,0.00,,,0.00,WUHU216HW,2013-03-10 20:30:00,
2013-03-10 15:35:00,34.3,31.3,29.32,WSW,248,8.0,8.0,89,0.00,,,0.00,WUHU216HW,2013-03-10 20:35:00,
2013-03-10 15:40:00,34.1,31.1,29.32,WNW,293,4.9,8.0,89,0.00,,,0.00,WUHU216HW,2013-03-10 20:40:00,
2013-03-10 15:45:00,33.9,30.9,29.33,NW,315,7.6,10.5,89,0.00,,,0.00,WUHU216HW,2013-03-10 20:45:00,
2013-03-10 15:50:00,33.6,30.6,29.33,NNW,338,8.9,13.1,89,0.00,,,0.00,WUHU216HW,2013-03-10 20:50:00,
2013-03-10 15:55:00,33.6,30.6,29.33,NNW,338,16.5,16.5,89,0.00,,,0.00,WUHU216HW,2013-03-10 20:55:00,
2013-03-10 16:00:00,33.6,30.6,29.33,WNW,293,1.1,16.5,89,0.00,,,0.00,WUHU216HW,2013-03-10 21:00:00,
2013-03-10 16:05:00,33.2,30.3,29.34,West,270,4.4,16.5,89,0.00,,,0.00,WUHU216HW,2013-03-10 21:05:00,
2013-03-10 16:10:00,32.9,30.0,29.34,North,0,6.0,11.8,89,0.00,,,0.00,WUHU216HW,2013-03-10 21:10:00,
2013-03-10 16:15:00,32.9,30.0,29.35,NW,315,8.0,11.8,89,0.00,,,0.00,WUHU216HW,2013-03-10 21:15:00,
2013-03-10 16:20:00,32.9,30.0,29.35,WSW,248,6.4,8.0,89,0.00,,,0.00,WUHU216HW,2013-03-10 21:20:00,
2013-03-10 16:25:00,33.0,30.4,29.35,WNW,293,5.1,7.3,90,0.00,,,0.00,WUHU216HW,2013-03-10 21:25:00,
2013-03-10 16:30:00,32.9,30.2,29.35,WSW,248,0.0,7.3,90,0.00,,,0.00,WUHU216HW,2013-03-10 21:30:00,
2013-03-10 16:35:00,32.7,29.8,29.36,NW,315,7.6,17.8,89,0.00,,,0.00,WUHU216HW,2013-03-10 21:35:00,
2013-03-10 16:40:00,32.7,29.8,29.36,WSW,248,6.0,17.8,89,0.00,,,0.00,WUHU216HW,2013-03-10 21:40:00,
2013-03-10 16:45:00,32.7,29.8,29.37,WSW,248,5.5,15.2,89,0.00,,,0.00,WUHU216HW,2013-03-10 21:45:00,
2013-03-10 16:50:00,32.7,29.8,29.36,NNW,338,6.9,15.2,89,0.00,,,0.00,WUHU216HW,2013-03-10 21:50:00,
2013-03-10 16:55:00,32.5,29.6,29.37,West,270,0.0,17.4,89,0.00,,,0.00,WUHU216HW,2013-03-10 21:55:00,
2013-03-10 17:00:00,32.5,29.6,29.37,West,270,0.0,17.4,89,0.00,,,0.00,WUHU216HW,2013-03-10 22:00:00,
2013-03-10 17:05:00,32.5,29.6,29.37,West,270,3.1,10.9,89,0.00,,,0.00,WUHU216HW,2013-03-10 22:05:00,
2013-03-10 17:10:00,32.3,29.5,29.37,NNW,338,11.1,11.1,89,0.00,,,0.00,WUHU216HW,2013-03-10 22:10:00,
2013-03-10 17:15:00,32.1,29.3,29.37,NW,315,1.7,11.1,89,0.00,,,0.00,WUHU216HW,2013-03-10 22:15:00,
2013-03-10 19:11:00,30.3,27.2,29.42,WNW,293,2.2,2.2,88,0.00,,,0.00,WUHU216HW,2013-03-11 00:11:00,
2013-03-10 19:16:00,30.5,27.4,29.42,WNW,293,6.7,13.8,88,0.00,,,0.00,WUHU216HW,2013-03-11 00:16:00,
2013-03-10 19:21:00,30.5,27.4,29.42,WNW,293,3.1,13.8,88,0.00,,,0.00,WUHU216HW,2013-03-11 00:21:00,
2013-03-10 19:26:00,30.3,27.2,29.42,WNW,293,2.0,7.1,88,0.00,,,0.00,WUHU216HW,2013-03-11 00:26:00,
2013-03-10 19:31:00,30.3,26.9,29.43,WNW,293,6.9,9.3,87,0.00,,,0.00,WUHU216HW,2013-03-11 00:31:00,
2013-03-10 19:36:00,30.3,26.9,29.43,WNW,293,1.1,9.3,87,0.00,,,0.00,WUHU216HW,2013-03-11 00:36:00,
2013-03-10 19:41:00,30.3,26.9,29.43,WNW,293,8.2,8.2,87,0.00,,,0.00,WUHU216HW,2013-03-11 00:41:00,
2013-03-10 19:46:00,30.0,26.8,29.44,WNW,293,9.6,9.6,87,0.00,,,0.00,WUHU216HW,2013-03-11 00:46:00,
2013-03-10 19:51:00,30.0,26.6,29.44,WNW,293,3.1,9.6,87,0.00,,,0.00,WUHU216HW,2013-03-11 00:51:00,
2013-03-10 19:57:00,30.0,26.6,29.44,WNW,293,7.3,13.8,87,0.00,,,0.00,WUHU216HW,2013-03-11 00:57:00,
2013-03-10 20:02:00,30.0,26.3,29.44,WNW,293,1.3,13.8,86,0.00,,,0.00,WUHU216HW,2013-03-11 01:02:00,
2013-03-10 20:07:00,30.0,26.3,29.44,WNW,293,9.8,10.9,86,0.00,,,0.00,WUHU216HW,2013-03-11 01:07:00,
2013-03-10 20:12:00,30.0,26.3,29.44,WNW,293,2.2,9.8,86,0.00,,,0.00,WUHU216HW,2013-03-11 01:12:00,
2013-03-10 20:17:00,30.0,26.3,29.45,WNW,293,3.3,9.8,86,0.00,,,0.00,WUHU216HW,2013-03-11 01:17:00,
2013-03-10 20:22:00,29.8,26.4,29.45,WNW,293,7.1,10.0,87,0.00,,,0.00,WUHU216HW,2013-03-11 01:22:00,
2013-03-10 20:27:00,29.6,26.2,29.45,WNW,293,6.4,10.0,87,0.00,,,0.00,WUHU216HW,2013-03-11 01:27:00,
2013-03-10 20:32:00,29.4,26.0,29.45,WNW,293,7.1,7.3,87,0.00,,,0.00,WUHU216HW,2013-03-11 01:32:00,
2013-03-10 20:37:00,29.3,25.8,29.45,WNW,293,1.3,7.3,86,0.00,,,0.00,WUHU216HW,2013-03-11 01:37:00,
2013-03-10 20:42:00,29.3,25.9,29.45,WNW,293,2.9,10.0,87,0.00,,,0.00,WUHU216HW,2013-03-11 01:42:00,
2013-03-10 20:47:00,29.1,25.7,29.45,WNW,293,6.9,10.0,87,0.00,,,0.00,WUHU216HW,2013-03-11 01:47:00,
2013-03-10 20:52:00,29.1,25.4,29.46,WNW,293,3.1,7.8,86,0.00,,,0.00,WUHU216HW,2013-03-11 01:52:00,
2013-03-10 20:57:00,28.9,25.2,29.45,WNW,293,4.6,7.8,86,0.00,,,0.00,WUHU216HW,2013-03-11 01:57:00,
2013-03-10 21:02:00,28.7,25.3,29.45,WNW,293,7.8,7.8,87,0.00,,,0.00,WUHU216HW,2013-03-11 02:02:00,
2013-03-10 21:07:00,28.7,25.3,29.46,WNW,293,6.9,8.5,87,0.00,,,0.00,WUHU216HW,2013-03-11 02:07:00,
2013-03-10 21:12:00,28.7,25.3,29.46,WNW,293,6.9,9.6,87,0.00,,,0.00,WUHU216HW,2013-03-11 02:12:00,
2013-03-10 21:17:00,28.7,25.3,29.46,WNW,293,1.5,9.6,87,0.00,,,0.00,WUHU216HW,2013-03-11 02:17:00,
2013-03-10 21:22:00,28.5,25.1,29.47,WNW,293,7.1,7.1,87,0.00,,,0.00,WUHU216HW,2013-03-11 02:22:00,
2013-03-10 21:27:00,28.5,24.9,29.46,WNW,293,9.3,9.3,86,0.00,,,0.00,WUHU216HW,2013-03-11 02:27:00,
2013-03-10 21:32:00,28.5,24.9,29.47,WNW,293,2.9,9.3,86,0.00,,,0.00,WUHU216HW,2013-03-11 02:32:00,
2013-03-10 21:37:00,28.2,24.5,29.47,WNW,293,14.3,14.3,86,0.00,,,0.00,WUHU216HW,2013-03-11 02:37:00,
2013-03-10 21:42:00,28.2,24.5,29.48,WNW,293,4.0,14.3,86,0.00,,,0.00,WUHU216HW,2013-03-11 02:42:00,
2013-03-10 21:47:00,28.2,24.2,29.48,WNW,293,4.6,5.8,85,0.00,,,0.00,WUHU216HW,2013-03-11 02:47:00,
2013-03-10 21:52:00,28.2,24.2,29.48,WNW,293,4.0,5.8,85,0.00,,,0.00,WUHU216HW,2013-03-11 02:52:00,
2013-03-10 21:57:00,28.2,24.2,29.48,WNW,293,4.2,10.0,85,0.00,,,0.00,WUHU216HW,2013-03-11 02:57:00,
2013-03-10 22:02:00,28.2,24.2,29.48,WNW,293,7.1,10.0,85,0.00,,,0.00,WUHU216HW,2013-03-11 03:02:00,
2013-03-10 22:07:00,28.2,24.2,29.48,WNW,293,10.2,10.2,85,0.00,,,0.00,WUHU216HW,2013-03-11 03:07:00,
2013-03-10 22:12:00,28.0,23.7,29.48,WNW,293,7.1,10.2,84,0.00,,,0.00,WUHU216HW,2013-03-11 03:12:00,
2013-03-10 22:17:00,28.0,23.7,29.48,WNW,293,12.5,12.5,84,0.00,,,0.00,WUHU216HW,2013-03-11 03:17:00,
2013-03-10 22:22:00,28.0,23.7,29.48,WNW,293,5.1,12.5,84,0.00,,,0.00,WUHU216HW,2013-03-11 03:22:00,
2013-03-10 22:27:00,28.0,23.7,29.49,WNW,293,11.4,12.5,84,0.00,,,0.00,WUHU216HW,2013-03-11 03:27:00,
2013-03-10 22:32:00,27.6,23.1,29.49,WNW,293,7.8,11.4,83,0.00,,,0.00,WUHU216HW,2013-03-11 03:32:00,
2013-03-10 22:37:00,27.6,23.1,29.49,WNW,293,2.0,11.4,83,0.00,,,0.00,WUHU216HW,2013-03-11 03:37:00,
2013-03-10 22:42:00,27.6,23.1,29.49,WNW,293,3.5,13.1,83,0.00,,,0.00,WUHU216HW,2013-03-11 03:42:00,
2013-03-10 22:47:00,27.6,23.1,29.49,WNW,293,4.2,13.1,83,0.00,,,0.00,WUHU216HW,2013-03-11 03:47:00,
2013-03-10 22:52:00,27.6,23.1,29.49,WNW,293,6.4,6.4,83,0.00,,,0.00,WUHU216HW,2013-03-11 03:52:00,
2013-03-10 22:57:00,27.6,23.1,29.49,WNW,293,7.1,7.1,83,0.00,,,0.00,WUHU216HW,2013-03-11 03:57:00,
2013-03-10 23:00:00,27.5,22.9,29.49,WNW,293,6.4,7.1,83,0.00,,,0.00,WUHU216HW,2013-03-11 04:00:00,
2013-03-10 23:05:00,27.5,22.9,29.49,WNW,293,3.1,10.9,83,0.00,,,0.00,WUHU216HW,2013-03-11 04:05:00,
2013-03-10 23:10:00,27.5,23.2,29.48,WNW,293,3.3,10.9,84,0.00,,,0.00,WUHU216HW,2013-03-11 04:10:00,
2013-03-10 23:15:00,27.5,23.2,29.49,WNW,293,7.3,7.3,84,0.00,,,0.00,WUHU216HW,2013-03-11 04:15:00,
2013-03-10 23:20:00,27.3,23.0,29.49,WNW,293,0.2,9.3,84,0.00,,,0.00,WUHU216HW,2013-03-11 04:20:00,
2013-03-10 23:25:00,27.1,22.6,29.49,WNW,293,6.0,9.3,83,0.00,,,0.00,WUHU216HW,2013-03-11 04:25:00,
2013-03-10 23:30:00,27.1,22.6,29.49,WNW,293,9.6,9.6,83,0.00,,,0.00,WUHU216HW,2013-03-11 04:30:00,
2013-03-10 23:35:00,27.1,22.6,29.49,WNW,293,0.0,9.6,82,0.00,,,0.00,WUHU216HW,2013-03-11 04:35:00,
2013-03-10 23:40:00,27.1,22.3,29.49,WNW,293,3.3,9.6,82,0.00,,,0.00,WUHU216HW,2013-03-11 04:40:00,
2013-03-10 23:45:00,27.1,22.3,29.49,WNW,293,4.9,6.7,82,0.00,,,0.00,WUHU216HW,2013-03-11 04:45:00,
2013-03-10 23:50:00,27.1,22.3,29.49,WNW,293,2.4,8.0,82,0.00,,,0.00,WUHU216HW,2013-03-11 04:50:00,
2013-03-10 23:55:00,27.1,22.6,29.49,WNW,293,7.6,8.0,83,0.00,,,0.00,WUHU216HW,2013-03-11 04:55:00,